Location: Unspecified
(0.0000°N, 0.0000°E)
Time: 16:56:44
(UTC+00:00)

deb Briz - Pass Details

Date: 19 February 2026
Orbit: 1598 x 2046 km, 64.9° (Epoch: 8 March)

Event Time Altitude Azimuth Distance (km) Brightness Sun altitude
Rises 05:33:42 0° 217° (SW) 5,211 ? -9.8°
Reaches altitude 10° 05:37:17 10° 224° (SW) 4,151 ? -9.0°
Maximum altitude 05:46:44 41° 290° (WNW) 2,328 ? -6.6°
Drops below altitude 10° 05:55:34 10° 357° (N) 3,860 ? -4.5°
Sets 05:58:49 0° 5° (N) 4,814 ? -3.7°
